Location: Ferchesar
(52.6477°N, 12.4298°E)
Time: 17:15:28
(UTC+01:00)

Envisat - Pass Details

Date: 09 October 2022
Orbit: 763 x 765 km, 98.2° (Epoch: 30 November)

Event Time Altitude Azimuth Distance (km) Brightness Sun altitude
Rises 05:31:45 0° 16° (NNE) 3,247 6.7 -17.9°
Reaches altitude 10° 05:34:05 10° 19° (NNE) 2,316 5.9 -17.5°
Maximum altitude 05:39:11 70° 103° (ESE) 819 3.3 -16.8°
Drops below altitude 10° 05:44:14 10° 187° (S) 2,298 5.3 -16.0°
Sets 05:46:33 0° 190° (S) 3,219 6.0 -15.7°
